GW4073 Weather Reports


Display with metric or nautical units.
time (UTC)temp
F
wind
direction
speed
MPH
gust
MPH
rain 1hr
in
rain 24hr
in
rain mn
in
humidity
%
barometer
mb
20260904062339 56 71 4.0 7.0 0.00 0.00 0.00 44 1012.8
20260904061835 56 52 7.0 8.0 0.00 0.00 0.00 43 1012.8
20260904061331 56 46 8.0 8.0 0.00 0.00 0.00 42 1012.7
20260904060827 56 75 5.0 6.0 0.00 0.00 0.00 42 1012.5
20260904060323 56 51 5.0 6.0 0.00 0.00 0.00 42 1012.7
20260904055818 56 77 3.0 5.0 0.00 0.03 0.03 43 1012.7
20260904055313 56 75 3.0 4.0 0.00 0.03 0.03 42 1012.5
20260904054809 56 55 4.0 7.0 0.00 0.03 0.03 42 1012.4
20260904054305 56 50 3.0 6.0 0.00 0.03 0.03 42 1012.4
20260904053800 57 89 2.0 4.0 0.00 0.03 0.03 41 1012.3
20260904053259 57 103 4.0 5.0 0.00 0.03 0.03 41 1012.5
20260904052755 57 64 3.0 6.0 0.00 0.03 0.03 40 1012.5
20260904052251 57 71 2.0 4.0 0.00 0.03 0.03 40 1012.5
20260904051748 57 96 3.0 5.0 0.00 0.03 0.03 40 1012.3
20260904051243 58 52 4.0 6.0 0.00 0.03 0.03 38 1012.3
20260904050738 58 58 4.0 5.0 0.00 0.03 0.03 39 1012.4
20260904050234 58 65 4.0 7.0 0.00 0.03 0.03 39 1012.4
20260904045729 58 111 4.0 4.0 0.00 0.03 0.03 39 1012.4
20260904045223 58 89 2.0 3.0 0.00 0.03 0.03 39 1012.4
20260904044718 58 91 3.0 4.0 0.00 0.03 0.03 38 1012.5
20260904044215 59 99 2.0 5.0 0.00 0.03 0.03 37 1012.4
20260904043711 59 49 2.0 5.0 0.00 0.03 0.03 36 1012.5
20260904043207 59 69 2.0 6.0 0.00 0.03 0.03 36 1012.5
20260904042703 59 42 4.0 5.0 0.00 0.03 0.03 36 1012.3
20260904042159 59 14 3.0 4.0 0.00 0.03 0.03 36 1012.5
20260904041653 59 84 3.0 4.0 0.00 0.03 0.03 36 1012.4
20260904041150 60 69 2.0 2.0 0.00 0.03 0.03 36 1012.5
20260904040645 60 83 2.0 3.0 0.00 0.03 0.03 35 1012.5
20260904040141 60 73 2.0 3.0 0.00 0.03 0.03 34 1012.2
20260904035637 61 51 2.0 3.0 0.00 0.03 0.03 34 1012.3
20260904035136 61 56 3.0 4.0 0.00 0.03 0.03 32 1012.3
20260904034635 61 77 2.0 3.0 0.00 0.03 0.03 33 1012.1
20260904034131 61 63 2.0 4.0 0.00 0.03 0.03 33 1012.1
20260904033626 62 47 0.0 5.0 0.00 0.03 0.03 31 1012.1
20260904033124 63 34 3.0 4.0 0.00 0.03 0.03 30 1012.2
20260904032619 63 29 4.0 4.0 0.00 0.03 0.03 29 1012.1
20260904032118 63 49 3.0 4.0 0.00 0.03 0.03 30 1011.8
20260904031612 63 50 3.0 3.0 0.00 0.03 0.03 32 1011.8
20260904031108 63 48 2.0 3.0 0.00 0.03 0.03 33 1011.8
20260904030604 63 45 2.0 5.0 0.00 0.03 0.03 30 1011.6
20260904030059 62 74 2.0 2.0 0.00 0.03 0.03 36 1011.7
20260904025555 63 19 2.0 2.0 0.00 0.03 0.03 35 1011.7
20260904025050 63 53 2.0 3.0 0.00 0.03 0.03 36 1011.6
20260904024545 63 34 2.0 2.0 0.00 0.03 0.03 34 1011.4
20260904024041 63 31 1.0 2.0 0.00 0.03 0.03 34 1011.4
20260904023537 64 20 1.0 1.0 0.00 0.03 0.03 33 1011.2
20260904023032 64 49 0.0 1.0 0.00 0.03 0.03 30 1011.4
20260904022526 65 0 1.0 2.0 0.00 0.03 0.03 29 1011.4
20260904022023 66 351 2.0 2.0 0.00 0.03 0.03 27 1011.1
20260904021519 66 340 2.0 2.0 0.00 0.03 0.03 28 1011.0
20260904021014 67 357 1.0 2.0 0.00 0.03 0.03 25 1011.1
20260904020509 68 12 1.0 2.0 0.00 0.03 0.03 26 1011.2
20260904020009 69 346 2.0 2.0 0.00 0.03 0.03 26 1011.4
20260904015503 70 32 0.0 2.0 0.00 0.03 0.03 25 1011.0
20260904015001 72 326 0.0 2.0 0.00 0.03 0.03 24 1011.0
20260904014456 73 316 1.0 2.0 0.00 0.03 0.03 20 1011.5
20260904013952 73 277 4.0 4.0 0.00 0.03 0.03 19 1011.1
20260904013448 74 339 1.0 4.0 0.00 0.03 0.03 21 1011.4
20260904012944 75 319 1.0 4.0 0.00 0.03 0.03 20 1011.0
20260904012444 75 283 3.0 5.0 0.00 0.03 0.03 20 1011.4
20260904011938 75 354 0.0 2.0 0.00 0.03 0.03 21 1011.4
20260904011432 77 257 3.0 5.0 0.00 0.03 0.03 18 1011.0
20260904010928 76 240 5.0 6.0 0.00 0.03 0.03 18 1011.1
20260904010425 76 244 4.0 5.0 0.00 0.03 0.03 19 1011.2
20260904005919 77 243 2.0 4.0 0.00 0.03 0.03 19 1011.2
20260904005416 77 309 2.0 10.0 0.00 0.03 0.03 19 1011.2
20260904004915 77 284 2.0 3.0 0.00 0.03 0.03 22 1011.1
20260904004412 78 260 0.0 5.0 0.00 0.03 0.03 19 1011.2
20260904003907 78 234 2.0 5.0 0.00 0.03 0.03 19 1011.2
20260904003403 78 259 2.0 6.0 0.00 0.03 0.03 21 1011.1
20260904002903 79 261 1.0 4.0 0.00 0.03 0.03 20 1011.1
20260904002400 81 212 2.0 3.0 0.00 0.03 0.03 19 1011.5
20260904001858 81 234 3.0 6.0 0.00 0.03 0.03 18 1011.1
20260904001354 81 264 2.0 5.0 0.00 0.03 0.03 20 1011.4
20260904000849 81 143 2.0 6.0 0.00 0.03 0.03 19 1011.5
20260904000348 82 243 7.0 9.0 0.00 0.03 0.03 20 1011.6
20260903235848 82 248 4.0 11.0 0.00 0.03 0.03 19 1011.5
20260903235344 82 310 3.0 7.0 0.00 0.03 0.03 19 1011.5
20260903234843 83 258 4.0 5.0 0.00 0.03 0.03 19 1011.5
20260903234340 83 294 2.0 7.0 0.00 0.03 0.03 18 1011.6
20260903233836 83 241 4.0 6.0 0.00 0.03 0.03 17 1011.5
20260903233332 82 285 3.0 13.0 0.00 0.03 0.03 17 1011.5
20260903232831 83 274 2.0 10.0 0.00 0.03 0.03 21 1011.7
20260903232327 84 230 6.0 10.0 0.00 0.03 0.03 16 1011.6
20260903231826 84 225 5.0 6.0 0.00 0.03 0.03 21 1011.5
20260903231321 83 268 2.0 7.0 0.00 0.03 0.03 18 1011.8
20260903230816 83 302 3.0 7.0 0.00 0.03 0.03 20 1011.7
20260903230312 84 238 6.0 6.0 0.00 0.03 0.03 18 1011.9
20260903225808 84 232 2.0 8.0 0.00 0.03 0.03 19 1011.7
20260903225306 84 288 2.0 4.0 0.00 0.03 0.03 20 1011.7
20260903224800 84 256 4.0 5.0 0.00 0.03 0.03 20 1011.9
20260903224256 84 307 2.0 5.0 0.00 0.03 0.03 21 1011.9
20260903223751 84 301 3.0 6.0 0.00 0.03 0.03 20 1012.2
20260903223249 83 275 5.0 13.0 0.00 0.03 0.03 19 1012.1
20260903222739 84 239 4.0 8.0 0.00 0.03 0.03 19 1012.2
20260903222238 84 337 2.0 11.0 0.00 0.03 0.03 19 1012.4
20260903221733 84 261 3.0 9.0 0.00 0.03 0.03 18 1012.2
20260903221232 83 276 3.0 14.0 0.00 0.03 0.03 20 1012.4
20260903220730 83 304 3.0 9.0 0.00 0.03 0.03 21 1012.5
20260903220225 83 259 3.0 10.0 0.00 0.03 0.03 20 1012.5
20260903215723 82 60 2.0 17.0 0.00 0.03 0.03 20 1012.8
20260903215220 83 277 5.0 8.0 0.00 0.03 0.03 19 1012.5
20260903214717 83 258 4.0 13.0 0.00 0.03 0.03 21 1012.5
20260903214214 83 277 3.0 6.0 0.00 0.03 0.03 22 1012.4
20260903213708 84 235 3.0 5.0 0.00 0.03 0.03 19 1012.7
20260903213203 84 257 3.0 5.0 0.00 0.03 0.03 22 1012.7
20260903212659 83 241 5.0 7.0 0.00 0.03 0.03 20 1012.9
20260903212156 84 293 3.0 5.0 0.00 0.03 0.03 20 1012.7
20260903211649 83 249 7.0 16.0 0.00 0.03 0.03 20 1012.7
20260903211146 83 267 4.0 8.0 0.00 0.03 0.03 22 1012.5
20260903210642 83 189 6.0 9.0 0.00 0.03 0.03 19 1012.7
20260903210137 84 262 7.0 8.0 0.00 0.03 0.03 20 1013.0
20260903205636 83 303 4.0 10.0 0.00 0.03 0.03 20 1012.7
20260903205131 83 236 6.0 7.0 0.00 0.03 0.03 20 1012.9
20260903204627 82 345 3.0 10.0 0.00 0.03 0.03 20 1012.9
20260903204123 83 199 7.0 8.0 0.00 0.03 0.03 19 1013.0
20260903203618 82 278 4.0 11.0 0.00 0.03 0.03 21 1013.2
20260903203117 83 284 2.0 7.0 0.00 0.03 0.03 20 1013.0
20260903202613 82 256 4.0 9.0 0.00 0.03 0.03 20 1013.0
20260903202109 83 263 4.0 8.0 0.00 0.03 0.03 22 1013.1
20260903201603 83 213 4.0 6.0 0.00 0.03 0.03 19 1013.0
20260903201102 82 269 4.0 11.0 0.00 0.03 0.03 20 1013.4
20260903200557 82 239 5.0 8.0 0.00 0.03 0.03 20 1013.2
20260903200052 81 268 6.0 13.0 0.00 0.03 0.03 22 1013.5
20260903195548 82 237 2.0 6.0 0.00 0.03 0.03 22 1013.5
20260903195044 82 291 4.0 5.0 0.00 0.03 0.03 24 1013.4
20260903194539 81 229 4.0 8.0 0.00 0.03 0.03 21 1013.5
20260903194034 81 291 4.0 11.0 0.00 0.03 0.03 24 1013.6
20260903193530 81 293 6.0 7.0 0.00 0.03 0.03 22 1013.6
20260903193025 82 259 2.0 3.0 0.00 0.03 0.03 26 1013.7
20260903192523 82 280 3.0 6.0 0.00 0.03 0.03 23 1013.9
20260903192022 82 206 5.0 5.0 0.00 0.03 0.03 26 1014.1
20260903191518 80 285 2.0 4.0 0.00 0.03 0.03 28 1014.2
20260903191013 80 256 4.0 7.0 0.00 0.03 0.03 29 1014.2
20260903190507 80 298 2.0 3.0 0.00 0.03 0.03 29 1014.3
20260903190007 79 252 4.0 9.0 0.00 0.03 0.03 27 1014.7
20260903185502 79 181 3.0 7.0 0.00 0.03 0.03 28 1014.3
20260903184957 80 310 5.0 5.0 0.00 0.03 0.03 29 1014.4
20260903184454 80 181 2.0 4.0 0.00 0.03 0.03 27 1014.3
20260903183953 79 284 2.0 4.0 0.00 0.03 0.03 31 1014.4
20260903183447 78 226 4.0 9.0 0.00 0.03 0.03 30 1014.4
20260903182942 80 162 3.0 4.0 0.00 0.03 0.03 27 1014.8
20260903182441 79 244 2.0 4.0 0.00 0.03 0.03 30 1014.8
20260903181936 78 178 2.0 4.0 0.00 0.03 0.03 30 1014.7
20260903181431 78 279 2.0 6.0 0.00 0.03 0.03 30 1014.9
20260903180930 77 226 3.0 7.0 0.00 0.03 0.03 29 1014.9
20260903180425 76 280 4.0 9.0 0.00 0.03 0.03 30 1014.9
20260903175924 77 247 8.0 10.0 0.00 0.03 0.03 27 1014.9
20260903175420 77 216 7.0 10.0 0.00 0.03 0.03 27 1015.0
20260903174913 77 268 5.0 5.0 0.00 0.03 0.03 28 1014.9
20260903174408 76 195 5.0 5.0 0.00 0.03 0.03 30 1015.0
20260903173903 75 260 2.0 5.0 0.00 0.03 0.03 32 1015.4
20260903173358 76 277 2.0 4.0 0.00 0.03 0.03 32 1015.2
20260903172854 76 231 0.0 4.0 0.00 0.03 0.03 33 1014.9
20260903172353 76 325 2.0 5.0 0.00 0.03 0.03 35 1014.8
20260903171849 76 4 2.0 8.0 0.00 0.03 0.03 33 1015.2
20260903171344 76 311 4.0 4.0 0.00 0.03 0.03 34 1014.9
20260903170843 75 299 3.0 6.0 0.00 0.03 0.03 35 1015.1
20260903170344 74 295 2.0 6.0 0.00 0.03 0.03 37 1015.1
20260903165842 74 309 0.0 4.0 0.00 0.03 0.03 36 1015.2
20260903165337 74 291 3.0 5.0 0.00 0.03 0.03 35 1015.1
20260903164832 74 284 2.0 5.0 0.00 0.03 0.03 37 1015.4
20260903164327 73 304 3.0 3.0 0.00 0.03 0.03 36 1015.1
20260903163826 74 314 2.0 2.0 0.00 0.03 0.03 37 1015.4
20260903163323 73 288 2.0 4.0 0.00 0.03 0.03 35 1015.2
20260903162818 73 256 0.0 3.0 0.00 0.03 0.03 36 1015.1
20260903162315 72 262 0.0 3.0 0.00 0.03 0.03 34 1015.2
20260903161810 73 294 3.0 3.0 0.00 0.03 0.03 33 1015.2
20260903161306 73 303 2.0 2.0 0.00 0.03 0.03 33 1015.1
20260903160801 72 219 0.0 2.0 0.00 0.03 0.03 32 1015.1
20260903160255 71 351 0.0 2.0 0.00 0.03 0.03 30 1015.4
20260903155753 70 348 0.0 2.0 0.00 0.03 0.03 29 1015.0
20260903155248 68 37 2.0 3.0 0.00 0.03 0.03 29 1015.1
20260903154744 68 21 1.0 2.0 0.00 0.03 0.03 30 1015.1
20260903154240 67 52 1.0 4.0 0.00 0.03 0.03 30 1015.2
20260903153735 65 113 4.0 5.0 0.00 0.03 0.03 31 1015.4
20260903153231 64 92 3.0 5.0 0.00 0.03 0.03 32 1015.5
20260903152727 63 110 6.0 10.0 0.00 0.03 0.03 33 1015.1
20260903152223 62 60 3.0 10.0 0.00 0.03 0.03 34 1015.4
20260903151722 62 59 4.0 7.0 0.00 0.03 0.03 35 1015.2
20260903151218 61 119 3.0 10.0 0.00 0.03 0.03 35 1015.4
20260903150713 60 103 6.0 14.0 0.00 0.03 0.03 35 1015.0
20260903150207 60 44 5.0 11.0 0.00 0.03 0.03 35 1015.0
20260903145702 59 54 5.0 10.0 0.00 0.03 0.03 37 1015.0
20260903145157 59 85 3.0 9.0 0.00 0.03 0.03 37 1015.1
20260903144656 59 89 4.0 7.0 0.00 0.03 0.03 37 1014.8
20260903144152 58 42 5.0 10.0 0.00 0.03 0.03 37 1015.1
20260903143648 57 100 3.0 7.0 0.00 0.03 0.03 37 1015.0
20260903143143 57 20 6.0 9.0 0.00 0.03 0.03 39 1015.0
20260903142639 56 37 6.0 9.0 0.00 0.03 0.03 38 1015.1
20260903142136 55 56 5.0 10.0 0.00 0.03 0.03 38 1015.0
20260903141631 54 72 6.0 12.0 0.00 0.03 0.03 39 1014.8
20260903141125 54 11 5.0 10.0 0.00 0.03 0.03 39 1014.9
20260903140622 54 22 5.0 9.0 0.00 0.03 0.03 40 1014.9
20260903140117 52 62 6.0 12.0 0.00 0.03 0.03 41 1015.0
20260903135612 51 111 5.0 9.0 0.00 0.03 0.03 43 1014.8
20260903135112 50 64 7.0 12.0 0.00 0.03 0.03 43 1014.5
20260903134611 50 18 3.0 14.0 0.00 0.03 0.03 45 1014.9
20260903134107 50 53 6.0 11.0 0.00 0.03 0.03 44 1014.7
20260903133605 50 19 3.0 11.0 0.00 0.03 0.03 46 1014.8
20260903133100 50 52 11.0 13.0 0.00 0.03 0.03 44 1014.5
20260903132556 50 42 7.0 9.0 0.00 0.03 0.03 45 1014.4
20260903132051 50 85 6.0 12.0 0.00 0.03 0.03 44 1014.7
20260903131550 49 52 8.0 14.0 0.00 0.03 0.03 45 1014.4
20260903131049 49 52 3.0 9.0 0.00 0.03 0.03 47 1014.7
20260903130544 49 25 7.0 11.0 0.00 0.03 0.03 45 1014.4
20260903130039 49 7 6.0 11.0 0.00 0.03 0.03 47 1014.5
20260903125537 49 55 8.0 11.0 0.00 0.03 0.03 46 1014.7
20260903125032 49 15 2.0 11.0 0.00 0.03 0.03 47 1014.7
20260903124527 49 129 2.0 7.0 0.00 0.03 0.03 46 1014.5
20260903124026 49 32 7.0 14.0 0.02 0.03 0.03 46 1014.3
20260903123520 49 23 9.0 12.0 0.09 0.03 0.03 46 1014.4
20260903123020 49 14 3.0 9.0 0.14 0.03 0.03 47 1014.7
20260903122514 49 30 8.0 11.0 0.07 0.01 0.01 46 1014.4
20260903122014 49 62 8.0 11.0 0.00 0.00 0.00 46 1014.7
20260903121514 49 77 7.0 11.0 0.00 0.00 0.00 46 1014.7
20260903121010 49 83 5.0 11.0 0.00 0.00 0.00 46 1014.8
20260903120508 50 42 9.0 13.0 0.00 0.00 0.00 45 1014.4
20260903120009 50 70 5.0 12.0 0.00 0.00 0.00 46 1014.7
20260903115508 50 68 4.0 10.0 0.00 0.00 0.00 46 1014.4
20260903115008 50 88 6.0 9.0 0.00 0.00 0.00 47 1014.5
20260903114503 50 77 5.0 12.0 0.00 0.00 0.00 45 1014.8
20260903113958 50 69 10.0 11.0 0.00 0.00 0.00 44 1014.5
20260903113454 50 61 3.0 12.0 0.00 0.00 0.00 45 1014.5
20260903112950 50 77 4.0 11.0 0.00 0.00 0.00 46 1014.7
20260903112446 50 28 6.0 8.0 0.00 0.00 0.00 45 1014.8
20260903111945 50 32 5.0 9.0 0.00 0.00 0.00 46 1014.4
20260903111444 50 43 8.0 8.0 0.00 0.00 0.00 46 1014.4
20260903110941 50 74 2.0 9.0 0.00 0.00 0.00 45 1014.4
20260903110437 50 50 4.0 10.0 0.00 0.00 0.00 45 1014.2
20260903105931 50 52 7.0 9.0 0.00 0.00 0.00 45 1014.2
20260903105427 50 73 4.0 16.0 0.00 0.00 0.00 45 1014.3
20260903104926 51 62 6.0 10.0 0.00 0.00 0.00 44 1014.5
20260903104425 51 53 7.0 14.0 0.00 0.00 0.00 43 1014.3
20260903103923 51 92 4.0 11.0 0.00 0.00 0.00 44 1014.4
20260903103418 51 68 7.0 12.0 0.00 0.00 0.00 44 1014.4
20260903102913 51 73 6.0 10.0 0.00 0.00 0.00 44 1014.4
20260903102408 50 53 8.0 9.0 0.00 0.00 0.00 45 1014.3
20260903101908 51 55 9.0 11.0 0.00 0.00 0.00 45 1014.4
20260903101403 51 103 7.0 12.0 0.00 0.00 0.00 45 1014.4
20260903100858 51 101 4.0 13.0 0.00 0.00 0.00 45 1014.4
20260903100353 50 57 14.0 16.0 0.00 0.00 0.00 44 1014.2
20260903095844 51 69 7.0 13.0 0.00 0.00 0.00 44 1014.4
20260903095338 51 59 4.0 10.0 0.00 0.00 0.00 45 1014.4
20260903094833 51 41 10.0 14.0 0.00 0.00 0.00 45 1014.3
20260903094328 51 85 7.0 14.0 0.00 0.00 0.00 45 1014.8
20260903093824 51 75 5.0 13.0 0.00 0.00 0.00 46 1014.4
20260903093319 51 67 5.0 12.0 0.00 0.00 0.00 45 1014.7
20260903092820 51 74 8.0 12.0 0.00 0.00 0.00 45 1014.4
20260903092314 51 65 9.0 11.0 0.00 0.00 0.00 44 1014.4
20260903091813 51 40 12.0 13.0 0.00 0.00 0.00 44 1014.3
20260903091307 51 98 4.0 14.0 0.00 0.00 0.00 44 1014.5
20260903090803 51 83 6.0 8.0 0.00 0.00 0.00 44 1014.4
20260903090302 51 97 6.0 11.0 0.00 0.00 0.00 45 1014.2
20260903085801 51 119 9.0 9.0 0.00 0.00 0.00 45 1014.5
20260903085255 51 86 4.0 11.0 0.00 0.00 0.00 45 1014.3
20260903084754 51 71 6.0 12.0 0.00 0.00 0.00 45 1014.3
20260903084248 51 86 6.0 13.0 0.00 0.00 0.00 45 1014.4
20260903083744 51 88 5.0 10.0 0.00 0.00 0.00 45 1014.4
20260903083244 51 96 2.0 12.0 0.00 0.00 0.00 45 1014.3
20260903082743 52 108 5.0 11.0 0.00 0.00 0.00 43 1014.4
20260903082239 52 95 5.0 10.0 0.00 0.00 0.00 43 1014.5
20260903081739 52 119 10.0 12.0 0.00 0.00 0.00 43 1014.7
20260903081230 52 106 8.0 11.0 0.00 0.00 0.00 44 1014.7
20260903080726 52 60 4.0 11.0 0.00 0.00 0.00 44 1014.7
20260903080223 52 86 6.0 10.0 0.00 0.00 0.00 45 1014.9
20260903075722 52 62 5.0 9.0 0.00 0.00 0.00 44 1014.8
20260903075217 53 61 4.0 8.0 0.00 0.00 0.00 43 1014.9
20260903074716 53 76 4.0 10.0 0.00 0.00 0.00 42 1014.8
20260903074212 53 77 6.0 12.0 0.00 0.00 0.00 43 1014.9
20260903073706 53 108 5.0 13.0 0.00 0.00 0.00 42 1014.7
20260903073201 53 73 8.0 11.0 0.00 0.00 0.00 41 1014.4
20260903072657 53 41 7.0 11.0 0.00 0.00 0.00 42 1014.4
20260903072154 53 79 8.0 12.0 0.00 0.00 0.00 42 1014.7
20260903071650 54 93 6.0 11.0 0.00 0.00 0.00 42 1014.3
20260903071145 54 89 3.0 12.0 0.00 0.00 0.00 42 1014.5
20260903070640 54 72 5.0 9.0 0.00 0.00 0.00 42 1014.7
20260903070135 54 50 12.0 12.0 0.00 0.00 0.00 41 1014.5
20260903065635 54 79 8.0 11.0 0.00 0.00 0.00 42 1014.7
20260903065129 55 51 4.0 11.0 0.00 0.00 0.00 40 1014.5
20260903064624 55 109 6.0 15.0 0.00 0.00 0.00 40 1014.3
20260903064119 55 92 6.0 11.0 0.00 0.00 0.00 41 1014.4
20260903063615 55 76 7.0 13.0 0.00 0.00 0.00 41 1014.4
20260903063110 55 76 6.0 10.0 0.00 0.00 0.00 41 1014.4